Вернуться в каталог

COSMOS 2600

АктивенВоенныеSSO
NORAD 67674·PAYLOAD·🇷🇺 Russia

Запущен Feb 5, 2026 с Plesetsk Cosmodrome

Loading…

Ближайшие Пролёты (ближайшие 24 часа)

TLE

СвежийSource: Space-Track

Эпоха: Sep 14, 2026, 11:49 UTC

1 67674U 26023A   26257.49257643  .00047341  00000-0  22433-3 0  9991
2 67674  96.7412 328.5572 0004573 188.7707 171.3485 15.82848751 34915

Отслеживайте COSMOS 2600 в реальном времени с AllMySat

Download on the App Store